Regional Weather Roundup
Issued by NWS Charleston, SC

Current Version | Previous Version | Graphics & Text | Print | Product List | Glossary On
Versions: 1 2 3 4 5 6 7 8 9 10 11 12 13 14 15 16 17 18 19 20 21 22 23 24 25 26 27 28 29 30 31 32 33 34 35 36 37 38 39 40 41 42 43 44 45 46 47 48 49 50
000
ASUS42 KCHS 052312
RWRCHS

REGIONAL WEATHER ROUNDUP
NATIONAL WEATHER SERVICE CHARLESTON SC
700 PM EDT SUN JUL 05 2015

NOTE: "FAIR" INDICATES FEW OR NO CLOUDS BELOW 12,000 FEET WITH NO
SIGNIFICANT WEATHER AND/OR OBSTRUCTIONS TO VISIBILITY.

NOT ALL STATIONS ARE QUALITY CONTROLLED BY THE NATIONAL
WEATHER SERVICE. USE DATA WITH CAUTION...ESPECIALLY
DEWPOINT OBSERVATIONS.

SCZ027-030-031-034>040-042>050-060000-
...SOUTHEAST SOUTH CAROLINA...

CITY           SKY/WX    TMP DP  RH WIND       PRES   REMARKS
N CHARLESTON   PTSUNNY   82  72  71 S14       30.11S
WATERFRONT PAR   N/A     82  74  77 S13       30.09S
MOUNT PLEASANT FAIR      82  73  74 S12G18    30.11S
JOHNS ISLAND   FAIR      82  73  74 S13       30.12S
PINOPOLIS      NOT AVBL
MONCKS CORNER  FAIR      82  73  74 S5        30.11R
SUMMERVILLE    FAIR      81  77  89 S3        30.13R
BEAUFORT MCAS  LGT RAIN  74  72  93 SW5       30.13S FOG
BEAUFORT ARPT  RAIN      75  72  88 W5        30.13R
HILTON HEAD IS PTSUNNY   79  70  73 SW12      30.14F
WALTERBORO     CLOUDY    77  70  78 SW12      30.13S
ALLENDALE      LGT RAIN  73  72  94 CALM      30.11F

...SOUTHERN MIDLANDS AND PEE DEE...

CITY           SKY/WX    TMP DP  RH WIND       PRES   REMARKS
GEORGETOWN     NOT AVBL
KINGSTREE      NOT AVBL
ORANGEBURG     LGT RAIN  74  70  87 W8        30.14R FOG
BARNWELL       LGT RAIN  73  72  94 S6        30.12F
AIKEN          NOT AVBL
MANNING        HVY RAIN  81  70  69 S5        30.10R
COLUMBIA       CLOUDY    80  71  74 S17       30.07R
SUMTER         PTSUNNY   79  71  74 W6        30.08R
FLORENCE       PTSUNNY   83  69  62 S10       30.07S
MYRTLE BEACH   PTSUNNY   82  73  74 SW12      30.11R
N MYRTLE BEACH LGT RAIN  82  74  76 SW18      30.09S

$$

GAZ063-065-086>088-099>101-113>116-118-119-134>141-150-060000-
...SOUTHEAST GEORGIA...

CITY           SKY/WX    TMP DP  RH WIND       PRES   REMARKS
SAVANNAH ARPT  CLOUDY    72  69  90 S10       30.13F
HUNTER AAF     CLOUDY    72  72 100 SE5       30.11F
FORT STEWART   CLOUDY    75  70  84 SE9       30.11F
STATESBORO     NOT AVBL
SYLVANIA       LGT RAIN  75  74  97 S3        30.13F
CLAXTON        FAIR      73  72  94 SE3       30.12F

...CSRA...CENTRAL AND FAR SOUTHEAST GEORGIA...

CITY           SKY/WX    TMP DP  RH WIND       PRES   REMARKS
THOMSON        SUNNY     86  71  60 S3        30.13R HX  91
AUGUSTA-BUSH   PTSUNNY   80  71  74 S13G22    30.08R
AUGUSTA-DANIEL PTSUNNY   84  70  62 S16       30.10R
SWAINSBORO     FAIR      82  75  78 S3        30.11F
VIDALIA        RAIN      79  72  78 S5        30.12S
EASTMAN        FAIR      81  71  71 CALM      30.13R
HAZLEHURST     FAIR      82  73  76 SE3       30.12R
ALMA           CLOUDY    76  72  87 SE6       30.13R
WAYCROSS       CLOUDY    76  76  99 SE5       30.14R
JESUP          LGT RAIN  77  73  88 SE5       30.14S
BAXLEY         FAIR      77  73  88 CALM      30.13R
BRUNSWICK      CLOUDY    73  72  94 NE3       30.16S
SAINT SIMONS   LGT RAIN  73  71  93 E6        30.16F

$$

SCZ027-028-034-036>038-045-046-048>050-GAZ119-141-060000-
...LAKE AND SUPPLEMENTAL COASTAL OBSERVATIONS...

STATION/POSITION TIME  TEMP    WIND        PRES    WAVE   SWELL
                       AIR SEA DIR/SP/G            HT/PER HT/PER/DIR
                 (UTC) (F)     (DEG/KT/KT) (MB)    (FT/S) (FT/S/D)
UPR LAKE MARION  NOT AVBL
WINYAH BAY       NOT AVBL
LAKE MURRAY      2200   81     200/  8/  9 1016.6F
ACE BASIN NERRS  NOT AVBL
FORT PULASKI     2200   74 84  220/  6/ 13 1021.3F
SAPELO ISLAND    2200   72     310/  5     1022.0R

$$

ANZ835-935-AMZ111-154-330-350-352-354-370-450-454-472-060000-
...C-MAN AND BUOY OBSERVATIONS...

STATION/POSITION TIME  TEMP    WIND        PRES    WAVE   SWELL
                       AIR SEA DIR/SP/G            HT/PER HT/PER/DIR
                 (UTC) (F)     (DEG/KT/KT) (MB)    (FT/S) (FT/S/D)
BUOY 41004       2250   82 83  200/ 16/ 17 1019.2F   3/ 9   2/ 9
BUOY 41008       2250   76 79  290/  8/ 10 1021.4F   2/ 9   2/120/ 9
FOLLY BEACH CMAN 2200   82     190/ 13/ 15 1020.2R
CAPERS NEARSHORE 2208   83     200/ 16/ 21 1020.1R
FRIPP NEARSHORE  2200   82     190/ 16/ 17 1019.6S


STATION/POSITION TIME  TEMP    WIND        PRES    WAVE   SWELL
                       AIR SEA DIR/SP/G            HT/PER HT/PER/DIR
                 (UTC) (F)     (DEG/KT/KT) (MB)    (FT/S) (FT/S/D)
5E ST. MARYS GA  2221      78                N/A     2/ 4
FRYING PAN BUOY  2250   81 80  210/ 14/ 16 1020.0R   3/ 5   2/120/ 9
BUOY 41025       2250   81 81  200/ 12/ 14 1019.4R   3/ 8   2/150/ 8
CAPE LOOKOUT NC  2200   82     220/  7/ 10 1019.2S
BUOY 41002       2250   81 80  190/ 10/ 12 1021.5F   3/ 9   3/130/ 9
BUOY 41010       2220   81 84  100/  4/  6 1020.9F
ST AUGUSTINE FL  2300   71 75   CALM  /  1 1023.0F


$$



USA.gov is the U.S. government's official web portal to all federal, state and local government web resources and services.